GW3249 Weather Reports


time (UTC)temp
C
wind
direction
speed
KPH
gust
KPH
rain 1hr
cm
rain 24hr
cm
rain mn
cm
humidity
%
barometer
mb
20260506012517 15 326 1.6 6.4 0.00 0.28 0.03 92 1012.2
20260506012008 15 334 1.6 9.7 0.00 0.28 0.03 92 1012.3
20260506011501 15 3 1.6 9.7 0.00 0.28 0.03 91 1012.4
20260506010956 15 324 3.2 11.3 0.00 0.28 0.03 90 1012.6
20260506010446 15 312 3.2 11.3 0.00 0.28 0.03 90 1012.6
20260506005940 15 271 3.2 11.3 0.00 0.28 0.03 91 1012.7
20260506005433 15 317 3.2 11.3 0.00 0.28 0.03 92 1012.8
20260506004923 15 278 1.6 14.5 0.00 0.28 0.03 91 1012.9
20260506004417 15 187 1.6 14.5 0.00 0.30 0.03 91 1012.9
20260506003912 15 169 3.2 14.5 0.00 0.30 0.03 90 1013.1
20260506002855 15 358 1.6 14.5 0.00 0.30 0.03 90 1013.2
20260506002350 14 321 1.6 8.0 0.03 0.30 0.03 90 1013.0
20260506001845 14 253 3.2 8.0 0.03 0.30 0.03 90 1013.1
20260506001333 14 177 3.2 8.0 0.03 0.30 0.03 91 1013.1
20260506000317 13 337 1.6 14.5 0.03 0.30 0.03 93 1013.4
20260505235811 13 296 1.6 14.5 0.03 0.30 0.03 93 1013.4
20260505234752 13 338 0.0 6.4 0.03 0.30 0.03 93 1013.6
20260505233739 13 22 1.6 6.4 0.03 0.30 0.03 92 1013.8
20260505233230 14 76 1.6 6.4 0.03 0.30 0.03 92 1013.9
20260505232724 14 338 1.6 6.4 0.03 0.30 0.03 92 1014.0
20260505232217 14 54 1.6 4.8 0.00 0.28 0.00 92 1014.2
20260505231708 14 321 0.0 4.8 0.00 0.28 0.00 92 1014.0
20260505231202 13 334 0.0 4.8 0.00 0.28 0.00 92 1014.1
20260505230655 13 330 0.0 6.4 0.00 0.30 0.00 92 1014.1
20260505230145 13 126 0.0 6.4 0.00 0.30 0.00 92 1014.2
20260505225639 13 352 0.0 6.4 0.00 0.30 0.00 92 1014.2
20260505225133 13 329 0.0 6.4 0.00 0.30 0.00 92 1014.3
20260505224623 13 331 0.0 6.4 0.00 0.30 0.00 93 1014.4
20260505224117 13 148 0.0 6.4 0.00 0.30 0.00 93 1014.4
20260505223612 13 338 0.0 6.4 0.00 0.30 0.00 93 1014.5
20260505223102 13 346 0.0 8.0 0.00 0.30 0.00 93 1014.4
20260505222556 13 318 0.0 8.0 0.00 0.30 0.00 93 1014.5
20260505222049 13 308 0.0 4.8 0.00 0.30 0.00 93 1014.6
20260505221540 13 353 0.0 4.8 0.00 0.30 0.00 93 1014.5
20260505221033 13 101 0.0 6.4 0.00 0.30 0.00 93 1014.5
20260505220527 13 0 1.6 6.4 0.00 0.30 0.00 93 1014.5
20260505220018 13 180 0.0 6.4 0.00 0.30 0.00 93 1014.6
20260505215512 13 310 0.0 6.4 0.00 0.30 0.00 93 1014.7
20260505215005 13 3 0.0 4.8 0.00 0.30 0.00 92 1014.7
20260505214455 13 303 1.6 4.8 0.00 0.30 0.00 92 1014.7
20260505213444 13 331 1.6 8.0 0.00 0.33 0.00 92 1014.7
20260505212934 13 120 1.6 8.0 0.00 0.33 0.00 92 1014.6
20260505212427 13 331 1.6 8.0 0.00 0.33 0.00 92 1014.7
20260505211411 13 135 1.6 6.4 0.00 0.33 0.00 91 1014.7
20260505210359 13 336 1.6 6.4 0.00 0.33 0.00 92 1014.7
20260505205849 13 230 0.0 8.0 0.00 0.33 0.00 92 1014.7
20260505205344 13 213 0.0 8.0 0.00 0.33 0.00 92 1014.6
20260505204838 13 190 0.0 8.0 0.00 0.33 0.00 92 1014.7
20260505204328 13 190 0.0 8.0 0.00 0.33 0.00 92 1014.7
20260505203821 13 296 1.6 8.0 0.00 0.33 0.00 92 1014.7
20260505203316 13 175 1.6 8.0 0.00 0.33 0.00 92 1014.8
20260505202259 12 180 1.6 8.0 0.00 0.33 0.00 92 1014.8
20260505201244 13 133 1.6 8.0 0.00 0.33 0.00 93 1014.9
20260505200738 12 217 1.6 6.4 0.00 0.33 0.00 93 1015.0
20260505195722 12 180 0.0 4.8 0.00 0.33 0.00 93 1014.9
20260505193653 12 182 0.0 4.8 0.00 0.33 0.00 93 1015.2
20260505193147 12 234 0.0 4.8 0.00 0.33 0.00 93 1015.2
20260505192131 12 92 1.6 9.7 0.00 0.33 0.00 93 1015.2
20260505191626 13 144 1.6 9.7 0.00 0.33 0.00 93 1015.3
20260505191115 12 163 1.6 9.7 0.00 0.33 0.00 94 1015.3
20260505185553 12 67 1.6 4.8 0.00 0.36 0.00 94 1015.4
20260505185047 12 150 0.0 3.2 0.00 0.36 0.00 94 1015.4
20260505184541 12 188 0.0 3.2 0.00 0.36 0.00 94 1015.4
20260505184032 12 131 0.0 4.8 0.00 0.36 0.00 93 1015.4
20260505183526 12 131 0.0 4.8 0.00 0.36 0.00 93 1015.5
20260505183019 12 131 0.0 4.8 0.00 0.36 0.00 94 1015.5
20260505182509 12 80 1.6 3.2 0.00 0.36 0.00 94 1015.5
20260505182004 12 209 1.6 3.2 0.00 0.36 0.00 94 1015.6
20260505181458 12 170 0.0 3.2 0.00 0.36 0.00 94 1015.4
20260505180949 12 132 0.0 3.2 0.00 0.36 0.00 94 1015.4
20260505180442 12 129 0.0 3.2 0.00 0.36 0.00 93 1015.4
20260505175935 12 156 0.0 3.2 0.00 0.36 0.00 93 1015.5
20260505175425 12 76 0.0 3.2 0.00 0.36 0.00 93 1015.5
20260505174919 12 147 0.0 3.2 0.00 0.38 0.00 93 1015.5
20260505174414 12 161 0.0 1.6 0.00 0.38 0.00 93 1015.4
20260505173903 12 173 0.0 6.4 0.00 0.38 0.00 93 1015.6
20260505173357 12 181 0.0 6.4 0.00 0.38 0.00 93 1015.6
20260505172852 12 201 1.6 6.4 0.00 0.38 0.00 93 1015.6
20260505172342 12 265 0.0 6.4 0.00 0.38 0.00 93 1015.7
20260505171835 12 106 0.0 6.4 0.00 0.38 0.00 93 1015.8
20260505171329 12 187 0.0 3.2 0.00 0.38 0.00 93 1015.8
20260505170819 12 287 0.0 1.6 0.00 0.38 0.00 93 1015.9
20260505165808 12 125 0.0 4.8 0.00 0.41 0.00 92 1016.0
20260505165257 13 140 0.0 8.0 0.00 0.41 0.00 92 1016.0
20260505164751 13 173 1.6 8.0 0.00 0.41 0.00 92 1016.0
20260505164245 13 16 0.0 12.9 0.00 0.41 0.00 92 1016.2
20260505163735 13 187 0.0 12.9 0.00 0.41 0.00 92 1016.3
20260505162723 13 116 1.6 12.9 0.00 0.41 0.00 92 1016.3
20260505162213 13 128 1.6 11.3 0.00 0.41 0.00 92 1016.4
20260505161708 13 218 1.6 11.3 0.00 0.43 0.00 93 1016.4
20260505160651 13 177 0.0 8.0 0.00 0.43 0.00 93 1016.5
20260505153101 12 104 1.6 6.4 0.00 0.43 0.00 94 1016.8
20260505152555 12 87 0.0 4.8 0.00 0.43 0.00 94 1016.9
20260505152046 12 182 0.0 1.6 0.00 0.43 0.00 94 1016.9
20260505151539 12 182 0.0 3.2 0.00 0.43 0.00 94 1016.9
20260505150533 12 75 0.0 3.2 0.00 0.46 0.00 94 1017.0
20260505140518 10 180 0.0 0.0 0.00 0.48 0.00 94 1017.2
20260505123942 11 180 0.0 0.0 0.00 0.53 0.48 92 1017.9
20260505123440 11 180 0.0 0.0 0.00 0.53 0.48 92 1017.9
20260505122939 11 180 0.0 0.0 0.00 0.53 0.48 92 1017.9
20260505122437 11 180 0.0 0.0 0.00 0.56 0.48 92 1017.9
20260505121935 11 180 0.0 0.0 0.00 0.56 0.48 92 1018.0
20260505121429 11 180 0.0 0.0 0.00 0.56 0.48 91 1018.0
20260505120923 11 180 0.0 0.0 0.00 0.56 0.48 91 1018.0
20260505120416 11 180 0.0 0.0 0.00 0.56 0.48 91 1018.0
20260505115917 11 180 0.0 0.0 0.00 0.56 0.48 91 1018.0
20260505115416 11 180 0.0 0.0 0.00 0.58 0.48 91 1018.2
20260505114917 11 180 0.0 0.0 0.00 0.58 0.48 91 1018.1
20260505114414 11 180 0.0 0.0 0.00 0.58 0.48 91 1018.2
20260505113914 11 180 0.0 0.0 0.00 0.58 0.48 91 1018.2
20260505113414 11 143 0.0 0.0 0.00 0.58 0.48 91 1018.2
20260505112914 11 143 0.0 0.0 0.00 0.61 0.48 91 1018.1
20260505112412 11 143 0.0 0.0 0.00 0.61 0.48 91 1018.1
20260505111910 11 143 0.0 0.0 0.00 0.61 0.48 91 1018.0
20260505110906 11 143 0.0 0.0 0.00 0.61 0.48 91 1018.0
20260505101839 10 207 0.0 0.0 0.00 0.64 0.48 92 1018.1
20260505100338 10 329 0.0 0.0 0.00 0.64 0.48 92 1018.0
20260505095835 10 329 0.0 0.0 0.00 0.66 0.48 91 1017.9
20260505095336 10 329 0.0 0.0 0.00 0.66 0.48 91 1017.9
20260505094832 10 329 0.0 0.0 0.00 0.66 0.48 90 1018.0
20260505093826 10 329 0.0 0.0 0.00 0.66 0.48 90 1018.0
20260505093324 10 329 0.0 0.0 0.00 0.69 0.48 90 1017.8
20260505092825 10 329 0.0 0.0 0.00 0.69 0.48 90 1017.9
20260505092320 10 329 0.0 0.0 0.00 0.69 0.48 90 1017.9
20260505091821 10 27 0.0 0.0 0.00 0.69 0.48 91 1017.8
20260505091322 10 50 0.0 0.0 0.00 0.71 0.48 90 1017.8
20260505090310 10 50 0.0 0.0 0.00 0.71 0.48 89 1017.7
20260505085759 11 50 0.0 0.0 0.00 0.71 0.48 88 1017.7
20260505084748 11 50 0.0 0.0 0.00 0.71 0.48 88 1017.4
20260505084237 11 50 0.0 0.0 0.00 0.71 0.48 87 1017.4
20260505083731 11 50 0.0 0.0 0.00 0.74 0.48 86 1017.4
20260505083225 11 50 0.0 0.0 0.00 0.74 0.48 86 1017.3
20260505082715 11 50 0.0 0.0 0.00 0.76 0.48 85 1017.2
20260505082211 12 50 0.0 0.0 0.00 0.76 0.48 84 1017.1
20260505081704 12 50 0.0 0.0 0.00 0.76 0.48 84 1016.9
20260505081153 12 50 0.0 3.2 0.00 0.79 0.48 83 1016.9
20260505080648 12 50 0.0 3.2 0.00 0.79 0.48 83 1016.8
20260505080141 12 50 0.0 3.2 0.00 0.79 0.48 83 1016.7
20260505075125 12 104 0.0 1.6 0.20 0.81 0.48 81 1016.5
20260505074621 12 104 0.0 1.6 0.20 0.81 0.48 81 1016.4
20260505074109 12 104 0.0 3.2 0.20 0.84 0.48 80 1016.4
20260505072547 13 104 1.6 6.4 0.20 0.89 0.48 78 1016.3
20260505072042 13 180 1.6 6.4 0.20 0.89 0.48 78 1016.1
20260505071535 13 0 1.6 6.4 0.20 0.91 0.48 77 1016.1
20260505071025 13 224 1.6 4.8 0.20 0.91 0.48 78 1016.1
20260505070012 13 192 0.0 3.2 0.20 0.97 0.48 79 1016.0
20260505065502 13 33 0.0 4.8 0.00 0.76 0.28 79 1015.8
20260505064955 14 15 0.0 4.8 0.00 0.76 0.28 78 1015.8
20260505063940 14 72 0.0 4.8 0.00 0.76 0.28 77 1015.5
20260505063433 15 234 1.6 4.8 0.00 0.76 0.28 75 1015.4
20260505062938 15 204 1.6 12.9 0.00 0.76 0.28 73 1015.4
20260505062428 15 92 1.6 12.9 0.00 0.76 0.28 72 1015.2
20260505061930 15 161 3.2 12.9 0.03 0.76 0.28 72 1015.1
20260505061428 15 185 3.2 12.9 0.03 0.76 0.28 71 1015.1
20260505060928 15 296 3.2 9.7 0.03 0.76 0.28 70 1015.1
20260505060428 15 193 3.2 9.7 0.03 0.76 0.28 70 1015.0
20260505055928 15 5 3.2 9.7 0.03 0.76 0.28 70 1014.9
20260505055426 15 214 3.2 9.7 0.03 0.76 0.28 71 1014.8
20260505054932 15 227 3.2 9.7 0.03 0.76 0.28 71 1014.7
20260505054428 15 214 3.2 12.9 0.03 0.76 0.28 72 1014.8
20260505053926 15 258 1.6 12.9 0.03 0.76 0.28 71 1014.6
20260505053427 16 206 3.2 12.9 0.03 0.76 0.28 70 1014.6
20260505052427 16 208 3.2 16.1 0.03 0.76 0.28 70 1014.6
20260505051922 16 242 3.2 16.1 0.00 0.74 0.25 69 1014.5
20260505051423 16 18 3.2 16.1 0.00 0.74 0.25 69 1014.4
20260505050924 16 285 3.2 12.9 0.03 0.74 0.25 68 1014.4
20260505050424 17 156 4.8 12.9 0.03 0.74 0.25 69 1014.3
20260505041420 17 119 1.6 11.3 0.03 0.74 0.25 73 1013.3
20260505040920 17 122 3.2 11.3 0.00 0.71 0.23 71 1013.3
20260505040414 17 144 3.2 14.5 0.00 0.71 0.23 70 1013.2
20260505035911 17 177 4.8 14.5 0.00 0.71 0.23 70 1013.1
20260505035411 17 135 4.8 14.5 0.00 0.71 0.23 69 1013.2
20260505034912 17 187 3.2 14.5 0.00 0.71 0.23 70 1013.1
20260505034412 17 1 3.2 9.7 0.00 0.71 0.23 71 1013.1
20260505033912 17 275 3.2 8.0 0.00 0.71 0.23 72 1013.0
20260505032912 17 187 1.6 6.4 0.03 0.71 0.23 74 1013.1
20260505032410 17 320 1.6 8.0 0.03 0.71 0.23 75 1013.1
20260505031910 17 130 1.6 8.0 0.03 0.71 0.23 73 1013.2
20260505031412 17 35 3.2 8.0 0.03 0.71 0.23 74 1013.1
20260505030411 17 163 1.6 12.9 0.03 0.74 0.23 72 1013.1
20260505025910 17 72 3.2 12.9 0.03 0.74 0.23 73 1013.2
20260505025412 17 181 3.2 12.9 0.03 0.74 0.23 72 1013.2
20260505024359 17 194 1.6 9.7 0.03 0.74 0.23 74 1013.1
20260505023853 17 37 3.2 8.0 0.03 0.74 0.23 73 1013.2
20260505022852 17 163 3.2 12.9 0.00 0.71 0.23 74 1013.3
20260505022353 16 28 3.2 12.9 0.00 0.71 0.23 76 1013.2
20260505021853 16 179 3.2 12.9 0.00 0.71 0.23 75 1013.2
20260505021357 16 127 3.2 8.0 0.00 0.71 0.23 78 1013.2
20260505020854 16 77 3.2 8.0 0.00 0.71 0.23 78 1013.2
20260505020353 16 148 1.6 8.0 0.00 0.71 0.23 79 1013.2
20260505015854 16 33 1.6 8.0 0.00 0.71 0.23 80 1013.2
20260505014852 16 8 1.6 6.4 0.03 0.71 0.23 83 1013.2
20260505014348 15 46 0.0 4.8 0.03 0.71 0.23 82 1013.2
20260505013848 15 62 0.0 3.2 0.03 0.71 0.23 84 1013.2
20260505013346 15 183 0.0 8.0 0.03 0.71 0.23 85 1013.3
20260505012842 15 76 1.6 8.0 0.03 0.71 0.23 86 1013.3